Location: Unspecified
(41.5000°N, 0.0000°E)
Time: 18:13:25
(UTC+00:00)

Vanguard 3 - Pass Details

Date: 24 June 2019
Orbit: 508 x 3263 km, 33.3° (Epoch: 16 August)

Event Time Altitude Azimuth Distance (km) Brightness Sun altitude
Rises 13:59:08 0° 266° (W) 5,410 11.8 59.7°
Reaches altitude 10° 14:03:36 10° 261° (W) 3,926 11.3 59.0°
Maximum altitude 14:12:12 41° 196° (SSW) 1,526 9.6 57.5°
Drops below altitude 10° 14:17:22 10° 126° (SE) 2,353 9.5 56.6°
Sets 14:19:26 0° 118° (ESE) 3,072 9.9 56.2°
